Regional Weather Roundup
Issued by NWS Raleigh/Durham, NC

Home | Current Version | Previous Version | Text Only | Print | Product List | Glossary On
Versions: 1 2 3 4 5 6 7 8 9 10 11 12 13 14 15 16 17 18 19 20 21 22 23 24 25 26 27 28
000
ASUS42 KRAH 262110
RWRRAH
NORTH CAROLINA WEATHER ROUNDUP
NATIONAL WEATHER SERVICE RALEIGH NC
500 PM EDT THU APR 26 2018

NOTE: "FAIR" INDICATES FEW OR NO CLOUDS BELOW 12,000 FEET WITH NO
SIGNIFICANT WEATHER AND/OR OBSTRUCTIONS TO VISIBILITY.

NCZ001-053-055-056-065-067-262200-
WESTERN NORTH CAROLINA

CITY           SKY/WX    TMP DP  RH WIND       PRES   REMARKS
ASHEVILLE      LGT RAIN  55  53  93 SE5       29.88F
JEFFERSON      RAIN      52  49  90 CALM      29.88R
MORGANTON      LGT RAIN  60  57  92 SW5       29.91R
HICKORY        CLOUDY    61  54  77 W5        29.84S
RUTHERFORDTON  LGT RAIN  58  58 100 NW5       29.88F
MOUNT AIRY     FAIR      68  47  47 S6        29.85S
BOONE          RAIN      53  48  85 S9        29.90R
$$

NCZ021-022-025-041-071-084-088-262200-
CENTRAL NORTH CAROLINA

CITY           SKY/WX    TMP DP  RH WIND       PRES   REMARKS
CHARLOTTE      LGT RAIN  67  56  67 NW5       29.83F
GREENSBORO     CLOUDY    67  52  58 CALM      29.82F
WINSTON-SALEM  CLOUDY    68  50  52 SE5       29.84F
RALEIGH-DURHAM CLOUDY    72  56  57 S3        29.83F
FORT BRAGG     PTSUNNY   75  55  50 CALM      29.80F
FAYETTEVILLE   PTSUNNY   76  55  48 VRB6      29.80F
BURLINGTON     FAIR      73  52  47 S5        29.82F
LAURINBURG     PTSUNNY   75  59  57 S5        29.81F
$$

NCZ011-015-027-028-043-044-047-080-103-262200-
NORTHEASTERN NORTH CAROLINA

CITY           SKY/WX    TMP DP  RH WIND       PRES   REMARKS
ROCKY MT-WILSO FAIR      74  56  53 SW5       29.83F
GREENVILLE     FAIR      77  55  47 SW6       29.85F
WASHINGTON     CLOUDY    71  59  66 CALM      29.84S
ELIZABETH CITY FAIR      66  52  60 SE12      29.88S
MANTEO         PTSUNNY   61  49  65 SE9       29.90R
CAPE HATTERAS  FAIR      69  60  73 E8        29.89S
$$

NCZ078-087-090-091-093-098-101-262200-
SOUTHEASTERN NORTH CAROLINA

CITY           SKY/WX    TMP DP  RH WIND       PRES   REMARKS
LUMBERTON      FAIR      74  58  57 SE9       29.80F
GOLDSBORO      FAIR      77  55  47 CALM      29.81F
KINSTON        PTSUNNY   77  55  47 S9        29.83F
KENANSVILLE    CLOUDY    73  59  60 SE3       29.83S
NEW BERN       FAIR      75  58  55 S13G20    29.85F
CHERRY POINT   PTSUNNY   76  63  64 S12G23    29.86F
BEAUFORT       FAIR      73  62  68 S12       29.86F
JACKSONVILLE   FAIR      74  60  61 S12G22    29.84F
WILMINGTON     FAIR      76  56  49 S12G21    29.84F
$$





USA.gov is the U.S. government's official web portal to all federal, state and local government web resources and services.